Flag for Cuba Weather past 2 weeks in Santiago de Cuba, Cuba

Now
88 °F

Passing clouds.


Feels Like: 93 °F
Forecast: 73 / 91 °F
Wind: 8 mph from Southwest

Location: Santiago De Cuba - Oriente

Current Time: Sep 5, 2015 at 1:02:26 PM

Latest Report: Sep 5, 2015 at 11:50 AM


Visibility: 6 mi

Pressure: 30.01 "Hg

Humidity: 55%

Dew point: 70 °F

Location of Santiago de CubaLocation

Historic Weather in Santiago de Cuba — Graph

°F

Santiago de Cuba temperature yesterday

Maximum temperature yesterday: 88 °F (at 9:51 AM)
Minimum temperature yesterday: 75 °F (at 6:50 AM)
Average temperature yesterday: 83 °F

Past Weeks' High & Low Weather Summary

 TemperatureHumidityPressure
High91 °F (Aug 28, 10:50 AM)100% (Sep 1, 5:51 AM)30.04 "Hg (Sep 1, 5:51 AM)
Low75 °F (Sep 3, 6:50 AM)49% (Aug 28, 10:50 AM)29.83 "Hg (Aug 28, 3:51 PM)
Average83 °F69%29.95 "Hg
* Reported Aug 21 11:50 AM — Sep 5 11:50 AM, Santiago de Cuba, Weather by CustomWeather, © 2015

Note: Actual official high and low records may vary slightly from our data, if they occured in-between our weather recording intervals... More about our weather records

Advertising

Santiago de Cuba weather history for previous 24 hours

 ConditionsComfort  
Time TempWeatherWind HumidityBarometerVisibility
11:50 AM
Sat, Sep 5
88 °FPassing clouds.8 mph55%30.01 "Hg6 mi
10:50 AM86 °FPassing clouds.7 mph62%30.01 "Hg6 mi
9:50 AM86 °FPassing clouds.5 mph62%30.01 "Hg6 mi
8:51 AM84 °FPassing clouds.2 mph66%30.01 "Hg6 mi
7:50 AM77 °FPassing clouds.5 mph89%29.98 "Hg6 mi
6:51 AM75 °FPassing clouds.5 mph89%29.95 "Hg6 mi
5:51 AM75 °FPassing clouds.5 mph94%29.95 "Hg6 mi
4:50 AM77 °FPassing clouds.5 mph89%29.95 "Hg6 mi
3:50 AM77 °FPassing clouds.5 mph79%29.92 "Hg6 mi
2:50 AM77 °FPassing clouds.5 mph83%29.95 "Hg6 mi
1:50 AM77 °FPassing clouds.5 mph83%29.95 "Hg6 mi
12:51 AM79 °FPassing clouds.5 mph79%29.98 "Hg6 mi
11:50 PM
Fri, Sep 4
79 °FPassing clouds.3 mph79%29.98 "Hg6 mi
10:50 PM81 °FPassing clouds.3 mph74%29.98 "Hg6 mi
9:52 PM82 °FPassing clouds.2 mph70%29.98 "Hg6 mi
8:50 PM82 °FPassing clouds.2 mph70%29.95 "Hg6 mi
7:50 PM84 °FPassing clouds.2 mph66%29.95 "Hg6 mi
6:50 PM84 °FScattered clouds.2 mph66%29.95 "Hg6 mi
5:52 PM86 °FScattered clouds.5 mph62%29.95 "Hg6 mi
4:52 PM88 °FScattered clouds.8 mph59%29.95 "Hg6 mi
3:51 PM88 °FScattered clouds.9 mph59%29.95 "Hg6 mi
2:50 PM88 °FScattered clouds.10 mph59%29.95 "Hg6 mi
1:51 PM88 °FPassing clouds.9 mph62%29.98 "Hg6 mi
Weather by CustomWeather, © 2015

See weather overviewHow to use our weather pages